Flag for United Kingdom Weather past 2 weeks in St Helens, England, United Kingdom

Now
36 °F

Passing clouds.


Feels Like: 31 °F
Forecast: 37 / 43 °F
Wind: 6 mph from West

Location: Liverpool Airport

Current Time: Dec 29, 2014 at 1:50:27 AM

Latest Report: Dec 29, 2014 at 1:20 AM


Visibility: N/A

Pressure: 30.66 "Hg

Humidity: 93%

Dew point: 34 °F

Location of St HelensLocation

Historic Weather in St Helens — Graph

°F

St Helens temperature yesterday

Maximum temperature yesterday: 41 °F (at 12:20 PM)
Minimum temperature yesterday: 28 °F (at 8:50 AM)
Average temperature yesterday: 36 °F

Past Weeks' High & Low Weather Summary

 TemperatureHumidityPressure
High55 °F (Dec 18, 4:20 AM)100% (Dec 16, 11:50 PM)30.66 "Hg (Dec 16, 11:50 PM)
Low28 °F (Dec 28, 8:50 AM)66% (Dec 24, 10:50 AM)29.53 "Hg (Dec 17, 12:20 AM)
Average46 °F84%29.92 "Hg
* Reported Dec 14 12:20 AM — Dec 29 12:50 AM, St Helens, Weather by CustomWeather, © 2014

Note: Actual official high and low records may vary slightly from our data, if they occured in-between our weather recording intervals... More about our weather records

Advertising

St Helens weather history for previous 24 hours

 ConditionsComfort  
Time TempWeatherWind HumidityBarometerVisibility
12:50 AM
Dec 29
36 °FPassing clouds.5 mph87%30.66 "HgN/A
12:20 AM36 °FPassing clouds.6 mph93%30.66 "HgN/A
11:50 PM
Dec 28
36 °FPassing clouds.5 mph93%30.66 "HgN/A
11:20 PM36 °FPassing clouds.5 mph87%30.66 "HgN/A
10:50 PM36 °FPartly cloudy.5 mph93%30.66 "HgN/A
10:20 PM37 °FPassing clouds.5 mph87%30.66 "HgN/A
9:20 PM37 °FPassing clouds.3 mph87%30.66 "HgN/A
8:50 PM37 °FPassing clouds.5 mph93%30.66 "HgN/A
8:20 PM37 °FPassing clouds.5 mph87%30.63 "HgN/A
7:50 PM37 °FPassing clouds.3 mph87%30.66 "HgN/A
7:20 PM36 °FPassing clouds.6 mph87%30.63 "HgN/A
6:50 PM36 °FPassing clouds.5 mph87%30.63 "HgN/A
6:20 PM36 °FPassing clouds.7 mph93%30.63 "HgN/A
5:50 PM36 °FPassing clouds.6 mph93%30.60 "HgN/A
5:20 PM37 °FPassing clouds.5 mph87%30.60 "HgN/A
4:50 PM39 °FPassing clouds.6 mph87%30.60 "HgN/A
4:20 PM39 °FPassing clouds.5 mph87%30.60 "HgN/A
3:50 PM41 °FPassing clouds.3 mph81%30.57 "HgN/A
3:20 PM39 °FPassing clouds.3 mph81%30.57 "HgN/A
2:50 PM41 °FPassing clouds.5 mph76%30.57 "HgN/A
2:20 PM39 °FPassing clouds.6 mph81%30.57 "HgN/A
1:50 PM41 °FPassing clouds.5 mph81%30.54 "HgN/A
1:20 PM39 °FPassing clouds.3 mph87%30.54 "HgN/A
12:50 PM41 °FPassing clouds.1 mph81%30.54 "HgN/A
12:20 PM41 °FPassing clouds.1 mph81%30.54 "HgN/A
11:50 AM39 °FPassing clouds.1 mph81%30.54 "HgN/A
11:20 AM37 °FPassing clouds.2 mph87%30.54 "HgN/A
10:50 AM39 °FPassing clouds.No wind87%30.51 "HgN/A
10:20 AM36 °FPassing clouds.No wind93%30.51 "HgN/A
9:50 AM34 °FPassing clouds.No wind93%30.48 "HgN/A
9:20 AM32 °FPassing clouds.2 mph100%30.48 "HgN/A
8:50 AM28 °FPassing clouds.1 mph100%30.45 "HgN/A
8:20 AM30 °FPassing clouds.3 mph93%30.42 "HgN/A
7:50 AM32 °FClear.No wind100%30.42 "Hg10 mi
7:20 AM32 °FClear.1 mph93%30.39 "Hg10 mi
6:50 AM34 °FClear.1 mph87%30.36 "Hg10 mi
5:50 AM34 °FClear.6 mph87%30.33 "Hg10 mi
5:20 AM30 °FClear.2 mph93%30.30 "Hg10 mi
4:50 AM32 °FClear.5 mph93%30.30 "Hg10 mi
4:20 AM32 °FClear.5 mph93%30.27 "Hg10 mi
3:20 AM34 °FClear.7 mph93%30.24 "Hg10 mi
2:50 AM34 °FClear.6 mph93%30.21 "Hg10 mi
2:20 AM34 °FClear.3 mph93%30.21 "Hg10 mi
1:50 AM36 °FPassing clouds.2 mph87%30.18 "HgN/A
1:20 AM34 °FPassing clouds.9 mph93%30.15 "HgN/A
Weather by CustomWeather, © 2014

See weather overviewHow to use our weather pages